sat.trackr.live / text

‹ back to catalog

STARLINK-35618

NORAD 66423 · 2025-259B

PAYLOAD ACTIVE UNKNOWN

§ Identity

Operator
Country
US
Launch date
2025-11-11
Launch site
AFETR
Launch vehicle
Mass (kg)
RCS (m²)

Purposes: comms

External: N2YO · Heavens-Above · Gunter

§ Orbital elements

Epoch: 2026-09-20T16:44:26.748384Z

Period
94.27 min
Inclination
43.0034°
Eccentricity
0.0001689
Mean motion
15.27587197 rev/d
Perigee alt
481.9 km
Apogee alt
484.2 km
Semi-major
6,861.2 km
B*
5.3600e-4
RAAN
253.1921°
Arg perigee
278.5073°
Mean anomaly
81.5588°
Rev number
4,931

§ Raw data

STARLINK-356181 66423U 25259B   26263.69753181  .00014520  00000+0  53600-3 0  99912 66423  43.0034 253.1921 0001689 278.5073  81.5588 15.27587197 49310

JSON: /api/v1/satellites/66423 · /tle

For live sub-satellite position, see the globe view (requires WebGL).

§ Visibility from observer

Set your observer location to see the next 7 days of passes ≥ 10°. The values pass through the URL so the page stays shareable.

No JS? Fill the form by hand. The geolocation button needs JavaScript.